Gaylord, MI

1:25 AM EDT on June 26, 2017 (GMT -0400)
Otsego County

Weather History for KGLR - October, 2012

Change the Weather History Date:

Tuesday, October 30, 2012

  Actual Average Record
Temperature  
Mean Temperature 32 °F -  
Max Temperature 35 °F 51 °F 72 °F (1956)
Min Temperature 30 °F 32 °F 17 °F (1975)
Degree Days  
Heating Degree Days 33    
Moisture  
Dew Point 29 °F    
Average Humidity 88    
Maximum Humidity 93    
Minimum Humidity 56    
Precipitation  
Precipitation 0.09 in - - ()
Sea Level Pressure  
Sea Level Pressure 29.73 in    
Wind  
Wind Speed 10 mph (North)    
Max Wind Speed 13 mph    
Max Gust Speed 29 mph    
Visibility 5 miles    
Events Rain , Snow    
Averages and records for this station are not official NWS values.
T = Trace of Precipitation, MM = Missing Value Source: NWS Daily Summary

Daily Weather History Graph

Daily Weather History Graph

Search for Another Location

Airport or City:

Trip Planner

Search our weather history database for the weather conditions in past years. The results will help you decide how hot, cold, wet, or windy it might be!

Date:

Astronomy

Oct. 30, 2012 Rise Set
Actual Time 8:15 AM EDT 6:28 PM EDT
Civil Twilight 7:44 AM EDT 6:59 PM EDT
Nautical Twilight 7:10 AM EDT 7:34 PM EDT
Astronomical Twilight 6:35 AM EDT 8:08 PM EDT
Moon 6:54 PM EDT (10/30) 9:04 AM EDT (10/30)
Length of Visible Light 11h 14m
Length of Day
10h 13m
Full, 99% of the Moon is Illuminated
Oct 30
Full
Nov 6
Last Quarter
Nov 13
New
Nov 20
First Quarter
Nov 28
Full

Hourly Weather History & Observations

Time (EDT) Temp. Windchill Dew Point Humidity Pressure Visibility Wind Dir Wind Speed Gust Speed Precip Events Conditions
12:53 AM 34.0 °F 25.0 °F 19.9 °F 56% 29.99 in 10.0 mi North 12.7 mph 20.7 mph N/A   Partly Cloudy
1:53 AM 33.1 °F 23.9 °F 23.0 °F 66% 29.95 in 10.0 mi North 12.7 mph 24.2 mph N/A   Mostly Cloudy
3:53 AM 32.0 °F 23.6 °F 26.1 °F 79% 29.88 in 4.0 mi North 10.4 mph 20.7 mph 0.00 in Snow Light Snow
4:53 AM 33.1 °F 24.9 °F 24.1 °F 70% 29.85 in 10.0 mi North 10.4 mph 25.3 mph 0.00 in   Overcast
5:09 AM 33.8 °F 26.4 °F 24.8 °F 70% 29.81 in 10.0 mi North 9.2 mph 24.2 mph N/A   Overcast
5:31 AM 32.0 °F 23.0 °F 24.8 °F 75% 29.80 in 10.0 mi North 11.5 mph 26.5 mph N/A   Overcast
5:53 AM 32.0 °F 24.2 °F 25.0 °F 75% 29.85 in 10.0 mi North 9.2 mph 26.5 mph 0.00 in   Overcast
6:16 AM 30.2 °F 20.8 °F 26.6 °F 86% 29.80 in 2.0 mi North 11.5 mph 23.0 mph 0.00 in Snow Light Snow
6:19 AM 30.2 °F 22.6 °F 26.6 °F 86% 29.80 in 1.8 mi North 8.1 mph 21.9 mph 0.00 in Snow Light Snow
6:47 AM 30.2 °F 24.3 °F 26.6 °F 86% 29.79 in 1.5 mi North 5.8 mph 23.0 mph 0.00 in Snow Light Snow
6:53 AM 30.0 °F 21.7 °F 28.0 °F 92% 29.83 in 1.5 mi North 9.2 mph 19.6 mph 0.00 in Snow Light Snow
7:18 AM 30.2 °F 23.4 °F 26.6 °F 86% 29.78 in 5.0 mi Variable 6.9 mph 23.0 mph 0.01 in Snow Light Snow
7:53 AM 30.0 °F 21.7 °F 27.0 °F 88% 29.82 in 8.0 mi North 9.2 mph 21.9 mph 0.03 in   Overcast
8:53 AM 30.9 °F 22.2 °F 28.0 °F 89% 29.80 in 10.0 mi North 10.4 mph 23.0 mph 0.00 in   Overcast
9:53 AM 32.0 °F 23.0 °F 28.9 °F 88% 29.78 in 10.0 mi North 11.5 mph 23.0 mph 0.00 in   Overcast
10:32 AM 32.0 °F 22.5 °F 30.2 °F 93% 29.72 in 10.0 mi North 12.7 mph 26.5 mph N/A   Overcast
10:53 AM 33.1 °F 24.9 °F 30.0 °F 89% 29.76 in 10.0 mi North 10.4 mph 24.2 mph N/A   Overcast
11:53 AM 34.0 °F 27.2 °F 30.9 °F 89% 29.74 in 9.0 mi NNE 8.1 mph 23.0 mph 0.00 in Rain Light Rain
12:26 PM 33.8 °F 26.4 °F 30.2 °F 87% 29.70 in 5.0 mi North 9.2 mph 28.8 mph 0.01 in Rain Light Rain
12:53 PM 34.0 °F 27.2 °F 32.0 °F 92% 29.73 in 4.0 mi North 8.1 mph 21.9 mph 0.02 in Rain Light Rain
1:53 PM 34.0 °F 25.5 °F 32.0 °F 92% 29.71 in 4.0 mi North 11.5 mph 23.0 mph 0.00 in Rain Light Rain
2:53 PM 34.0 °F 27.2 °F 32.0 °F 92% 29.70 in 5.0 mi North 8.1 mph 21.9 mph 0.01 in Rain Light Rain
3:25 PM 33.8 °F 25.3 °F 32.0 °F 93% 29.65 in 5.0 mi North 11.5 mph 24.2 mph 0.00 in Rain Light Rain
3:45 PM 33.8 °F 26.4 °F 32.0 °F 93% 29.65 in 7.0 mi North 9.2 mph 21.9 mph 0.00 in Rain Light Rain
3:53 PM 34.0 °F 26.6 °F 32.0 °F 92% 29.69 in 5.0 mi North 9.2 mph 18.4 mph 0.00 in   Overcast
4:53 PM 34.0 °F 26.6 °F 32.0 °F 92% 29.69 in 5.0 mi North 9.2 mph 16.1 mph 0.00 in   Overcast
5:53 PM 33.1 °F 26.1 °F 30.9 °F 92% 29.69 in 4.0 mi North 8.1 mph 19.6 mph 0.00 in Snow Light Snow
6:06 PM 33.8 °F 25.3 °F 30.2 °F 87% 29.65 in 3.0 mi North 11.5 mph 17.3 mph 0.00 in   Overcast
6:15 PM 33.8 °F 26.4 °F 30.2 °F 87% 29.65 in 3.0 mi North 9.2 mph 20.7 mph 0.00 in   Overcast
6:46 PM 33.8 °F 27.7 °F 30.2 °F 87% 29.65 in 2.5 mi Variable 6.9 mph 20.7 mph 0.00 in Snow Light Snow
7:08 PM 32.0 °F 24.8 °F 30.2 °F 93% 29.66 in 3.0 mi North 8.1 mph 17.3 mph 0.00 in Snow Light Snow
7:38 PM 32.0 °F 24.8 °F 30.2 °F 93% 29.66 in 3.0 mi North 8.1 mph 17.3 mph 0.00 in Snow Light Snow
7:48 PM 32.0 °F 24.8 °F 30.2 °F 93% 29.66 in 2.0 mi North 8.1 mph - 0.01 in Snow Light Snow
8:01 PM 32.0 °F 26.4 °F 30.2 °F 93% 29.65 in 3.0 mi Variable 5.8 mph - 0.00 in Snow Light Snow
8:42 PM 32.0 °F 24.2 °F 30.2 °F 93% 29.65 in 2.0 mi North 9.2 mph 18.4 mph 0.02 in Snow Light Snow
8:53 PM 32.0 °F 24.8 °F 30.0 °F 92% 29.69 in 2.0 mi North 8.1 mph - 0.02 in Snow Light Snow
9:15 PM 32.0 °F 25.6 °F 30.2 °F 93% 29.65 in 1.8 mi Variable 6.9 mph - 0.01 in Snow Light Snow
9:24 PM 32.0 °F 24.8 °F 30.2 °F 93% 29.65 in 2.0 mi North 8.1 mph 16.1 mph 0.01 in Snow Light Snow
9:41 PM 32.0 °F 24.8 °F 30.2 °F 93% 29.65 in 3.0 mi North 8.1 mph 17.3 mph 0.01 in Snow Light Snow
9:48 PM 32.0 °F 24.2 °F 30.2 °F 93% 29.65 in 3.0 mi North 9.2 mph 17.3 mph 0.01 in   Overcast
9:53 PM 32.0 °F 23.6 °F 30.0 °F 92% 29.69 in 3.0 mi North 10.4 mph 17.3 mph 0.01 in Snow Light Snow
10:01 PM 32.0 °F 25.6 °F 30.2 °F 93% 29.64 in 2.5 mi Variable 6.9 mph 18.4 mph 0.00 in Snow Light Snow
10:11 PM 32.0 °F 26.4 °F 30.2 °F 93% 29.65 in 2.5 mi Variable 5.8 mph - 0.00 in Snow Light Snow
10:34 PM 32.0 °F 25.6 °F 30.2 °F 93% 29.64 in 1.8 mi North 6.9 mph - 0.00 in Snow Light Snow
10:53 PM 32.0 °F 26.4 °F 30.0 °F 92% 29.68 in 2.5 mi Variable 5.8 mph - 0.00 in Snow Light Snow
11:02 PM 32.0 °F 24.2 °F 30.2 °F 93% 29.64 in 3.0 mi North 9.2 mph - 0.00 in   Overcast
11:53 PM 32.0 °F 25.6 °F 30.0 °F 92% 29.67 in 2.5 mi North 6.9 mph - 0.00 in Snow Light Snow